Temp_Advection
nan nan nan nan nan nan nan nan nan nan nan nan nan nan nan nan nan nan nan nan nan nan nan nan nan nan nan nan nan nan nan nan nan nan nan nan nan nan nan nan nan nan
nan 1 1 1 0 0 1 1 2 2 1 1 2 1 1 1 2 1 1 2 1 1 1 2 1 2 1 1 1 1 1 1 1 1 1 1 1 1 1 1 2 nan
nan 1 1 0 0 1 2 2 2 2 1 2 2 2 2 2 2 1 1 1 1 1 1 1 1 2 1 1 1 1 1 1 1 1 1 1 1 1 1 2 2 nan
nan 1 1 1 1 1 2 3 2 1 1 1 1 2 3 3 2 1 1 1 1 1 1 1 1 1 1 2 2 1 1 1 1 2 1 1 2 2 2 2 2 nan
nan 1 1 1 1 1 2 1 1 1 1 1 2 3 3 3 2 1 1 1 1 1 1 1 1 1 1 2 2 1 2 1 1 2 1 1 2 2 2 2 2 nan
nan 1 1 1 1 1 1 1 0 1 1 1 2 2 3 3 2 2 1 1 1 1 1 1 1 1 1 2 2 1 1 1 2 2 1 1 2 2 2 2 2 nan
nan 1 1 1 1 1 1 1 1 1 1 1 2 2 2 2 2 2 1 1 1 1 1 1 1 1 1 2 1 1 1 2 2 2 1 2 3 3 2 2 2 nan
nan 1 1 1 1 1 1 1 1 1 1 1 1 1 2 2 2 2 2 2 1 1 1 1 1 1 1 1 1 1 2 2 2 2 2 2 3 2 2 2 2 nan
nan 0 1 0 0 0 0 0 0 1 1 1 1 1 2 2 2 2 2 2 1 1 1 1 1 1 1 1 1 1 2 2 2 2 2 3 2 2 3 2 1 nan
nan 0 0 0 0 -0 0 0 0 1 1 1 1 1 1 2 2 2 2 2 1 1 1 1 1 1 1 1 1 2 2 3 3 2 2 2 2 3 3 2 1 nan
nan 0 0 0 0 -0 -0 -0 -0 0 1 1 1 1 1 2 2 2 2 1 1 1 1 1 1 1 1 1 2 2 3 3 3 3 2 3 3 3 2 1 1 nan
nan 0 0 0 0 -0 -0 -0 -0 -0 0 1 1 1 1 1 1 2 1 1 1 1 1 1 1 1 1 2 2 3 3 3 3 3 3 3 3 3 2 1 1 nan
nan 0 0 -0 0 0 -0 -0 -0 -0 0 0 1 1 1 1 1 1 1 1 1 1 1 1 1 1 2 2 3 3 3 3 3 3 3 3 2 2 2 2 2 nan
nan 0 -0 -0 -0 0 0 -0 -0 -0 -0 0 0 1 1 1 1 1 1 1 1 1 1 1 1 1 2 2 3 3 3 3 3 3 3 2 2 2 2 2 2 nan
nan 0 -0 -0 -0 -0 -0 -0 -0 -0 -0 0 0 0 1 1 1 1 1 1 1 1 1 1 1 2 2 2 3 3 3 3 3 2 2 2 3 2 3 2 2 nan
nan -0 -0 -0 0 -0 -0 -1 -0 -0 -0 -0 0 0 1 1 1 1 1 1 1 1 1 1 1 2 2 2 2 2 2 3 3 3 3 3 3 2 2 2 1 nan
nan -0 -0 0 0 0 0 -0 -0 -0 -0 -0 0 0 0 1 1 1 1 1 1 1 1 1 1 1 2 2 2 2 2 2 2 3 3 3 2 2 2 1 1 nan
nan -0 -0 -0 0 0 0 0 0 0 0 0 0 1 1 1 1 1 1 1 1 1 1 1 1 1 2 2 2 2 2 2 2 2 2 2 2 2 1 1 1 nan
nan -1 -1 -1 -0 -0 -0 -0 0 0 0 0 0 0 0 0 0 1 1 1 1 1 1 1 1 1 1 1 2 2 2 2 2 2 2 2 2 1 1 1 1 nan
nan -1 -1 -1 -1 -1 -0 -0 -0 0 0 0 0 0 0 0 0 1 1 1 1 1 1 1 1 1 1 1 2 2 2 1 1 1 1 1 1 1 1 1 1 nan
nan -1 -1 -1 -1 -1 -1 -1 -0 -0 -0 -0 -0 -0 0 0 0 0 1 1 1 1 0 1 1 1 1 1 1 1 1 1 1 1 1 1 1 1 1 1 1 nan
nan -1 -1 -1 -1 -1 -1 -1 -0 -0 -0 -0 -0 -0 -0 0 0 0 0 1 1 1 0 0 0 1 1 1 1 0 0 0 1 1 1 1 1 1 1 1 1 nan
nan -1 -1 -1 -1 -1 -1 -1 -0 -0 -0 -0 -0 -0 -0 -0 0 0 0 1 1 0 0 0 0 1 0 1 1 0 0 1 1 1 1 1 1 1 1 1 2 nan
nan -1 -1 -1 -1 -1 -1 -0 -0 -0 -0 -0 -0 -0 -0 -0 0 0 0 1 1 1 1 0 0 0 0 0 0 -0 0 1 1 1 1 1 1 1 1 2 2 nan
nan -1 -1 -1 -1 -1 -0 -0 -0 -0 -0 -0 -0 -0 -0 -0 -0 0 0 1 1 1 1 0 0 0 0 0 0 -0 0 1 1 1 1 1 1 2 2 2 2 nan
nan nan nan nan nan nan nan nan nan nan nan nan nan nan nan nan nan nan nan nan nan nan nan nan nan nan nan nan nan nan nan nan nan nan nan nan nan nan nan nan nan nan
Wind_Speed
41 43 45 47 49 50 51 53 54 55 56 57 58 59 59 59 58 58 58 58 57 57 56 56 55 55 56 56 57 57 57 56 55 54 52 51 50 48 47 45 44 43
38 40 43 45 47 48 49 51 52 54 55 55 57 58 58 58 58 58 58 58 58 58 56 56 55 55 55 56 56 57 58 57 57 56 54 53 51 50 49 48 46 44
35 37 39 41 43 44 46 48 50 52 53 54 56 57 57 58 58 58 59 58 58 58 57 56 56 55 55 55 56 57 58 58 58 57 56 55 53 52 51 50 48 46
33 35 36 38 40 42 43 46 49 51 52 53 54 55 56 57 58 58 58 58 58 58 58 57 56 55 55 55 55 56 57 57 57 56 56 56 55 54 53 51 50 49
33 34 36 38 39 41 43 45 48 48 50 52 52 53 54 55 57 58 58 58 58 58 57 57 56 55 55 55 55 55 56 56 56 56 56 56 56 55 54 53 52 51
33 34 35 37 38 39 42 44 45 46 48 49 50 51 53 54 55 57 58 58 58 58 57 57 56 55 55 55 55 55 55 55 56 56 56 57 56 56 55 54 53 52
31 32 33 34 36 38 40 42 43 45 46 47 48 50 51 52 54 55 56 57 57 57 57 56 56 55 55 55 55 55 55 55 56 56 56 57 56 55 55 54 53 53
28 29 30 32 34 37 39 41 42 43 43 45 47 48 49 50 52 53 54 55 56 57 56 56 56 55 55 55 55 55 55 56 56 56 57 56 56 56 55 54 53 53
28 28 29 31 33 36 38 39 40 41 42 44 45 46 47 48 49 50 52 53 54 55 55 55 55 54 54 55 55 56 56 56 56 57 57 57 56 56 55 54 54 53
29 29 29 30 33 35 38 39 40 40 41 43 44 44 45 46 46 47 49 50 52 53 53 54 54 54 54 54 55 55 56 56 56 57 57 57 57 56 55 54 54 54
29 29 30 31 33 35 37 39 40 40 42 42 43 43 43 44 44 45 46 48 49 51 52 52 53 53 53 54 55 55 55 55 56 56 56 57 56 56 55 54 54 54
29 29 31 33 34 35 36 37 38 39 41 41 41 41 41 41 42 42 43 45 46 47 49 50 51 52 53 54 54 54 54 54 55 55 56 56 56 55 55 54 54 54
29 31 32 35 36 35 35 35 36 37 38 39 39 39 39 39 40 40 41 42 43 44 46 47 49 51 52 53 53 53 54 54 54 55 55 55 55 54 54 54 54 53
33 33 34 35 36 35 34 33 34 35 35 35 35 36 36 37 37 37 38 38 40 41 43 45 47 50 51 52 53 53 53 53 53 54 54 54 53 53 53 53 53 52
33 32 32 33 34 34 32 32 32 32 32 32 32 33 33 34 34 35 35 36 38 39 42 44 46 48 50 51 51 52 52 52 52 52 53 53 53 53 52 52 52 51
29 29 30 31 31 30 29 29 29 29 29 29 29 30 30 31 32 33 34 35 37 38 40 43 45 47 48 49 49 50 50 50 51 51 52 52 52 52 52 52 51 50
25 25 26 26 26 25 25 26 27 27 27 27 28 28 29 30 31 32 33 34 35 37 39 41 43 44 45 46 47 47 48 48 49 50 50 51 51 51 51 51 49 48
21 22 22 22 21 21 22 23 23 24 25 26 27 28 28 29 29 30 31 32 33 35 36 38 40 41 42 43 44 45 46 47 48 49 49 50 50 50 50 49 47 46
23 23 23 22 22 21 21 21 21 21 21 22 23 23 24 25 25 26 27 29 30 32 34 35 37 38 39 40 41 42 43 44 46 47 48 48 48 48 48 47 45 43
24 24 23 23 22 21 21 20 19 19 19 19 20 20 21 21 22 23 25 26 28 29 31 33 34 35 36 36 37 38 38 39 42 43 44 45 46 46 45 44 42 40
22 22 22 21 21 21 20 20 20 20 20 20 20 20 21 21 21 23 24 25 26 27 28 30 31 32 32 32 34 34 32 33 37 39 38 39 41 42 42 40 38 37
22 22 22 22 22 22 22 21 21 21 21 20 21 21 21 21 21 22 23 23 24 25 26 28 29 29 29 29 29 29 27 29 35 37 35 34 34 35 36 36 35 35
22 23 23 23 23 23 23 22 22 22 21 21 21 21 21 21 21 21 22 22 23 23 25 26 27 26 26 26 25 24 25 28 32 34 33 32 31 30 31 33 35 36
24 24 24 24 24 23 23 23 22 21 21 20 21 21 21 21 21 21 21 21 21 21 22 24 24 22 22 22 22 21 23 27 30 31 31 30 29 30 33 35 37 38
25 24 24 23 23 22 22 22 21 21 20 20 20 20 20 20 20 20 19 18 18 18 18 19 18 17 17 18 18 19 22 24 27 29 31 31 32 34 36 38 39 39
24 24 23 22 21 21 20 20 20 20 19 19 19 19 19 19 18 17 17 15 14 13 13 13 13 13 13 14 16 18 21 24 26 30 33 35 37 38 39 40 40 39
Wind_Direction
265 264 263 263 262 262 262 261 261 260 259 258 258 260 261 262 263 261 261 261 260 259 258 256 255 253 252 251 251 250 250 251 251 251 251 250 250 249 248 246 246 247
269 267 266 265 265 265 264 263 262 261 260 260 259 260 260 261 261 260 261 261 260 259 258 257 255 254 252 251 251 250 250 250 250 250 250 250 250 249 249 248 246 246
271 270 269 268 269 269 268 266 264 263 262 262 260 260 260 260 260 260 260 260 259 259 258 257 256 254 253 252 251 250 250 250 250 250 250 251 250 250 249 248 247 246
274 273 273 272 272 272 271 268 266 265 264 263 263 262 260 259 258 258 259 259 258 258 258 257 256 254 254 252 250 250 250 249 250 250 250 250 250 249 249 248 246 245
279 278 276 276 275 274 272 269 268 267 267 266 266 264 261 258 258 258 258 257 257 257 256 256 255 254 253 252 250 250 249 249 249 248 248 249 249 249 248 247 245 245
283 281 280 279 278 277 274 272 272 271 269 269 268 266 263 260 258 258 257 257 257 256 256 255 254 253 252 251 250 249 249 249 248 247 247 248 248 248 247 245 244 244
286 285 285 283 282 280 277 276 275 273 272 272 270 267 264 262 260 258 258 257 257 256 256 255 254 253 252 250 249 249 249 248 248 246 246 247 246 245 245 244 243 243
291 289 288 287 285 283 280 279 278 276 276 274 271 269 267 264 261 259 258 257 257 256 255 255 254 253 252 250 250 249 248 247 246 245 245 244 243 243 243 242 241 241
293 292 291 290 288 286 283 282 280 280 278 275 273 272 269 266 264 261 259 257 256 256 255 254 253 252 251 250 250 250 248 247 245 244 244 243 242 242 241 240 240 241
289 290 291 291 290 289 287 285 283 281 279 276 274 273 270 268 266 263 260 258 256 255 254 254 253 252 251 250 250 249 248 246 244 243 243 243 242 242 240 239 240 242
288 289 289 290 291 291 290 287 285 282 280 277 275 273 271 269 266 263 260 258 256 255 255 254 254 253 252 251 250 249 247 246 244 243 243 242 242 241 240 240 241 243
288 288 289 291 292 291 289 288 286 283 280 278 276 274 272 269 267 264 261 259 257 257 256 255 255 254 253 252 250 248 247 245 243 242 242 242 241 240 240 240 242 243
288 289 291 292 292 290 288 286 284 282 280 278 276 274 271 269 267 265 263 261 259 258 256 256 255 254 253 251 249 248 246 244 243 242 241 240 240 240 240 241 242 243
290 291 291 290 289 289 287 284 282 281 279 277 275 273 271 269 268 267 265 263 261 259 257 256 254 253 252 250 248 247 245 244 243 242 241 240 240 240 241 241 241 242
291 290 288 288 288 289 288 285 283 281 279 277 275 273 271 270 269 267 265 264 261 259 257 255 253 252 251 250 249 247 246 245 244 243 243 242 241 241 240 240 240 241
291 288 287 288 288 289 288 286 284 282 280 278 275 273 272 270 268 267 265 263 261 259 257 255 254 253 252 251 250 250 249 248 246 245 243 242 241 241 240 240 241 242
292 290 289 289 289 288 286 284 283 281 279 277 275 273 271 269 268 266 265 264 262 260 259 257 257 256 255 254 252 252 251 250 248 247 244 243 242 241 241 241 242 243
299 297 296 295 293 290 287 283 280 278 275 274 272 272 271 270 269 268 267 265 263 262 261 260 259 258 257 256 255 254 252 251 249 247 245 244 243 242 242 242 243 243
304 302 300 299 297 294 291 287 284 280 277 275 273 272 271 270 269 268 266 265 264 263 262 261 261 260 259 258 257 255 253 251 250 248 246 245 244 243 243 243 243 243
306 304 302 301 299 297 295 292 290 288 285 283 281 279 276 274 272 270 268 267 266 265 264 264 263 262 261 260 258 255 251 248 249 249 247 247 246 246 245 245 244 244
308 306 304 302 301 300 298 297 295 293 291 289 287 285 283 280 277 274 272 270 268 267 266 265 264 263 262 260 257 254 247 241 243 246 247 248 248 248 247 246 245 245
311 307 305 304 302 301 300 300 299 297 295 293 291 289 286 284 282 279 276 274 271 268 267 266 265 264 263 261 257 251 243 236 237 242 245 247 249 248 247 246 246 247
312 309 307 305 304 303 303 302 300 298 298 296 294 292 290 288 286 283 279 277 273 270 269 267 267 265 263 262 257 247 236 231 234 239 244 246 247 246 246 247 249 251
312 310 309 307 305 305 303 301 299 297 297 296 295 294 293 291 289 286 282 278 274 272 270 268 268 266 263 260 253 241 234 231 234 240 246 248 248 247 248 251 254 256
312 311 309 308 306 304 302 298 296 295 295 296 295 294 293 292 289 286 283 279 275 272 269 267 266 262 257 252 245 236 234 235 238 243 247 250 252 253 254 255 256 256
312 311 309 308 306 303 300 296 294 294 295 295 295 293 293 292 290 287 283 279 274 270 266 265 263 259 254 251 245 239 238 241 244 247 249 251 253 255 255 256 256 256
Height
1454 1454 1453 1453 1453 1452 1453 1453 1452 1452 1452 1452 1451 1449 1449 1450 1451 1452 1452 1453 1454 1455 1456 1458 1459 1460 1461 1462 1464 1464 1465 1465 1466 1467 1468 1469 1470 1471 1472 1472 1472 1472
1450 1450 1449 1449 1448 1447 1447 1447 1447 1448 1447 1447 1446 1446 1446 1446 1446 1446 1447 1447 1448 1449 1450 1452 1453 1454 1456 1457 1458 1458 1459 1459 1460 1461 1462 1463 1464 1465 1466 1467 1468 1468
1446 1446 1445 1444 1443 1443 1443 1443 1443 1443 1443 1442 1442 1442 1441 1441 1441 1441 1441 1442 1442 1443 1445 1446 1447 1448 1450 1451 1452 1452 1453 1453 1454 1455 1457 1457 1459 1459 1460 1462 1463 1463
1442 1442 1441 1440 1439 1439 1439 1439 1438 1438 1438 1437 1437 1437 1437 1437 1436 1436 1436 1436 1437 1438 1439 1440 1441 1442 1444 1445 1446 1446 1447 1448 1449 1450 1451 1451 1452 1453 1455 1456 1457 1458
1438 1438 1437 1436 1435 1435 1435 1434 1433 1433 1432 1432 1432 1433 1433 1433 1432 1430 1430 1430 1431 1431 1433 1434 1435 1436 1438 1439 1440 1440 1441 1442 1444 1445 1445 1445 1446 1447 1449 1450 1451 1452
1434 1434 1433 1432 1431 1431 1430 1429 1428 1428 1427 1427 1427 1427 1428 1428 1427 1425 1425 1425 1425 1426 1427 1428 1429 1430 1432 1433 1434 1434 1435 1436 1438 1439 1439 1439 1440 1441 1443 1444 1445 1446
1430 1430 1429 1428 1427 1427 1425 1424 1423 1423 1422 1422 1422 1422 1422 1422 1421 1421 1420 1420 1420 1420 1421 1422 1423 1424 1425 1427 1428 1428 1429 1431 1432 1433 1433 1434 1435 1436 1437 1438 1439 1440
1426 1426 1425 1424 1423 1422 1421 1419 1419 1418 1417 1417 1416 1416 1417 1417 1416 1416 1416 1415 1415 1415 1415 1416 1417 1418 1420 1421 1421 1422 1423 1425 1426 1427 1427 1428 1429 1430 1431 1432 1433 1434
1422 1422 1421 1420 1419 1417 1416 1415 1414 1413 1413 1412 1411 1411 1411 1411 1411 1411 1411 1411 1410 1410 1411 1411 1412 1413 1414 1414 1415 1416 1417 1418 1419 1420 1421 1422 1423 1424 1425 1427 1427 1429
1418 1418 1417 1416 1414 1413 1411 1410 1409 1408 1408 1407 1406 1406 1406 1406 1406 1407 1406 1406 1406 1405 1406 1406 1406 1407 1408 1409 1409 1410 1411 1412 1413 1414 1415 1416 1417 1418 1420 1421 1422 1423
1414 1413 1412 1411 1409 1408 1406 1405 1404 1404 1403 1402 1401 1401 1401 1401 1401 1401 1401 1401 1401 1401 1401 1401 1402 1402 1403 1403 1404 1405 1406 1407 1408 1409 1410 1411 1412 1413 1414 1416 1417 1418
1410 1409 1408 1406 1404 1403 1401 1400 1399 1398 1398 1397 1396 1396 1396 1396 1396 1396 1396 1396 1396 1397 1397 1397 1398 1398 1398 1398 1399 1400 1401 1402 1403 1404 1405 1406 1407 1409 1410 1411 1412 1414
1406 1405 1403 1401 1399 1398 1396 1395 1394 1393 1393 1392 1392 1391 1391 1391 1391 1391 1392 1392 1392 1393 1393 1393 1393 1393 1393 1393 1394 1395 1396 1397 1398 1399 1400 1401 1403 1404 1406 1407 1408 1409
1401 1400 1398 1396 1394 1393 1391 1390 1389 1388 1388 1387 1387 1387 1387 1387 1387 1387 1387 1388 1388 1388 1388 1389 1389 1388 1388 1389 1389 1390 1391 1392 1393 1394 1396 1397 1398 1400 1401 1402 1403 1405
1396 1394 1393 1391 1390 1388 1387 1386 1385 1384 1384 1383 1383 1383 1383 1383 1383 1383 1383 1384 1384 1384 1384 1384 1384 1383 1384 1384 1385 1386 1387 1388 1389 1390 1391 1393 1394 1395 1396 1397 1399 1400
1391 1390 1388 1387 1385 1384 1383 1382 1381 1381 1380 1380 1380 1379 1380 1380 1379 1379 1379 1379 1379 1380 1380 1379 1379 1379 1380 1380 1381 1382 1383 1384 1385 1386 1387 1388 1389 1390 1391 1392 1394 1396
1387 1386 1385 1383 1382 1381 1380 1379 1378 1377 1377 1377 1376 1376 1376 1376 1376 1376 1375 1376 1376 1376 1376 1375 1376 1376 1376 1377 1378 1379 1380 1380 1381 1382 1383 1384 1384 1385 1386 1388 1390 1392
1384 1383 1382 1380 1379 1378 1377 1376 1375 1374 1374 1373 1373 1373 1372 1372 1372 1372 1372 1372 1372 1372 1371 1371 1372 1372 1373 1374 1374 1375 1376 1376 1377 1377 1378 1379 1380 1381 1382 1384 1386 1388
1382 1380 1379 1377 1376 1375 1374 1373 1372 1371 1370 1370 1369 1369 1369 1368 1368 1368 1368 1368 1368 1368 1367 1367 1368 1368 1369 1370 1371 1371 1372 1372 1372 1373 1374 1374 1375 1377 1378 1380 1382 1384
1379 1377 1376 1374 1373 1372 1371 1370 1369 1368 1367 1367 1366 1366 1365 1365 1365 1364 1364 1364 1364 1364 1364 1364 1364 1364 1365 1366 1367 1367 1369 1368 1367 1368 1370 1371 1371 1373 1374 1376 1378 1380
1376 1374 1373 1371 1370 1369 1368 1367 1366 1365 1365 1364 1363 1363 1362 1362 1361 1361 1360 1360 1360 1360 1360 1360 1360 1361 1361 1363 1363 1364 1366 1366 1364 1364 1366 1367 1368 1369 1371 1373 1375 1377
1373 1372 1370 1369 1368 1366 1365 1364 1363 1362 1362 1361 1360 1359 1359 1358 1358 1357 1357 1357 1357 1357 1356 1356 1356 1357 1358 1359 1360 1361 1363 1364 1362 1361 1362 1364 1365 1366 1368 1369 1371 1373
1371 1369 1368 1366 1365 1363 1362 1361 1360 1359 1358 1358 1357 1356 1355 1355 1354 1354 1353 1353 1353 1353 1353 1353 1353 1354 1355 1356 1357 1358 1360 1361 1360 1359 1359 1360 1361 1363 1364 1365 1367 1368
1368 1366 1365 1363 1362 1360 1359 1358 1357 1356 1355 1355 1354 1353 1352 1352 1351 1351 1350 1350 1350 1350 1350 1350 1350 1351 1352 1353 1354 1356 1358 1358 1358 1357 1357 1357 1358 1359 1360 1361 1362 1363
1366 1364 1362 1360 1359 1358 1356 1355 1354 1353 1353 1352 1351 1350 1350 1349 1348 1348 1348 1348 1348 1348 1348 1348 1348 1349 1350 1350 1352 1354 1355 1356 1356 1355 1354 1354 1355 1355 1356 1356 1357 1358
1363 1361 1360 1358 1356 1355 1354 1353 1352 1351 1350 1350 1349 1348 1348 1347 1346 1346 1345 1345 1346 1346 1346 1346 1347 1347 1348 1349 1350 1351 1352 1353 1353 1352 1351 1351 1351 1351 1351 1351 1351 1352